Location: Unspecified
(0.0000°N, 0.0000°E)
Time: 01:26:28
(UTC+00:00)

DMSP 5D-3 F18 (USA 210) - Pass Details

Date: 25 February 2019
Orbit: 841 x 856 km, 98.6° (Epoch: 18 March)

Event Time Altitude Azimuth Distance (km) Brightness Sun altitude
Rises 18:32:40 0° 201° (SSW) 3,399 8.3 -4.8°
Reaches altitude 10° 18:36:02 10° 222° (SW) 2,463 8.0 -5.7°
Maximum altitude 18:39:06 15° 257° (WSW) 2,107 8.3 -6.4°
Drops below altitude 10° 18:42:11 10° 292° (WNW) 2,463 8.2 -7.2°
Sets 18:45:34 0° 314° (NW) 3,398 8.4 -8.0°
